Year,Month,Day,Hour,Minute,Value (Times are PST for temperature in C)
2012,07,19,00,00,13.30
2012,07,19,00,01,13.20
2012,07,19,00,02,13.20
2012,07,19,00,03,13.20
2012,07,19,00,04,13.20
2012,07,19,00,05,13.20
2012,07,19,00,06,13.20
2012,07,19,00,07,13.20
2012,07,19,00,08,13.20
2012,07,19,00,09,13.20
2012,07,19,00,10,13.20
2012,07,19,00,11,13.20
2012,07,19,00,12,13.20
2012,07,19,00,13,13.20
2012,07,19,00,14,13.10
2012,07,19,00,15,13.10
2012,07,19,00,16,13.10
2012,07,19,00,17,13.10
2012,07,19,00,18,13.10
2012,07,19,00,19,13.10
2012,07,19,00,20,13.10
2012,07,19,00,21,13.10
2012,07,19,00,22,13.00
2012,07,19,00,23,13.00
2012,07,19,00,24,13.00
2012,07,19,00,25,13.00
2012,07,19,00,26,13.00
2012,07,19,00,27,13.00
2012,07,19,00,28,13.00
2012,07,19,00,29,13.00
2012,07,19,00,30,13.00
2012,07,19,00,31,13.00
2012,07,19,00,32,13.00
2012,07,19,00,33,13.00
2012,07,19,00,34,13.00
2012,07,19,00,35,13.00
2012,07,19,00,36,13.00
2012,07,19,00,37,13.00
2012,07,19,00,38,13.00
2012,07,19,00,39,13.00
2012,07,19,00,40,13.00
2012,07,19,00,41,13.00
2012,07,19,00,42,13.00
2012,07,19,00,43,13.00
2012,07,19,00,44,13.00
2012,07,19,00,45,13.00
2012,07,19,00,46,13.00
2012,07,19,00,47,13.00
2012,07,19,00,48,13.00
2012,07,19,00,49,13.00
2012,07,19,00,50,13.00
2012,07,19,00,51,13.00
2012,07,19,00,52,13.00
2012,07,19,00,53,13.00
2012,07,19,00,54,13.00
2012,07,19,00,55,13.00
2012,07,19,00,56,13.00
2012,07,19,00,57,12.90
2012,07,19,00,58,12.90
2012,07,19,00,59,12.90
2012,07,19,01,00,12.90
2012,07,19,01,01,12.90
2012,07,19,01,02,12.90
2012,07,19,01,03,12.90
2012,07,19,01,04,12.80
2012,07,19,01,05,12.80
2012,07,19,01,06,12.80
2012,07,19,01,07,12.80
2012,07,19,01,08,12.80
2012,07,19,01,09,12.80
2012,07,19,01,10,12.80
2012,07,19,01,11,12.80
2012,07,19,01,12,12.80
2012,07,19,01,13,12.80
2012,07,19,01,14,12.80
2012,07,19,01,15,12.80
2012,07,19,01,16,12.80
2012,07,19,01,17,12.80
2012,07,19,01,18,12.70
2012,07,19,01,19,12.70
2012,07,19,01,20,12.70
2012,07,19,01,21,12.70
2012,07,19,01,22,12.70
2012,07,19,01,23,12.70
2012,07,19,01,24,12.70
2012,07,19,01,25,12.70
2012,07,19,01,26,12.70
2012,07,19,01,27,12.70
2012,07,19,01,28,12.70
2012,07,19,01,29,12.70
2012,07,19,01,30,12.70
2012,07,19,01,31,12.70
2012,07,19,01,32,12.70
2012,07,19,01,33,12.70
2012,07,19,01,34,12.70
2012,07,19,01,35,12.70
2012,07,19,01,36,12.70
2012,07,19,01,37,12.70
2012,07,19,01,38,12.70
2012,07,19,01,39,12.70
2012,07,19,01,40,12.70
2012,07,19,01,41,12.70
2012,07,19,01,42,12.70
2012,07,19,01,43,12.70
2012,07,19,01,44,12.70
2012,07,19,01,45,12.70
2012,07,19,01,46,12.70
2012,07,19,01,47,12.70
2012,07,19,01,48,12.70
2012,07,19,01,49,12.70
2012,07,19,01,50,12.70
2012,07,19,01,51,12.70
2012,07,19,01,52,12.70
2012,07,19,01,53,12.60
2012,07,19,01,54,12.60
2012,07,19,01,55,12.60
2012,07,19,01,56,12.60
2012,07,19,01,57,12.60
2012,07,19,01,58,12.60
2012,07,19,01,59,12.60
2012,07,19,02,00,12.60
2012,07,19,02,01,12.50
2012,07,19,02,02,12.50
2012,07,19,02,03,12.50
2012,07,19,02,04,12.40
2012,07,19,02,05,12.40
2012,07,19,02,06,12.40
2012,07,19,02,07,12.40
2012,07,19,02,08,12.40
2012,07,19,02,09,12.40
2012,07,19,02,10,12.30
2012,07,19,02,11,12.30
2012,07,19,02,12,12.30
2012,07,19,02,13,12.30
2012,07,19,02,14,12.30
2012,07,19,02,15,12.30
2012,07,19,02,16,12.30
2012,07,19,02,17,12.30
2012,07,19,02,18,12.30
2012,07,19,02,19,12.30
2012,07,19,02,20,12.30
2012,07,19,02,21,12.30
2012,07,19,02,22,12.30
2012,07,19,02,23,12.30
2012,07,19,02,24,12.30
2012,07,19,02,25,12.30
2012,07,19,02,26,12.30
2012,07,19,02,27,12.30
2012,07,19,02,28,12.30
2012,07,19,02,29,12.40
2012,07,19,02,30,12.40
2012,07,19,02,31,12.40
2012,07,19,02,32,12.40
2012,07,19,02,33,12.40
2012,07,19,02,34,12.40
2012,07,19,02,35,12.40
2012,07,19,02,36,12.40
2012,07,19,02,37,12.40
2012,07,19,02,38,12.40
2012,07,19,02,39,12.40
2012,07,19,02,40,12.40
2012,07,19,02,41,12.40
2012,07,19,02,42,12.40
2012,07,19,02,43,12.40
2012,07,19,02,44,12.40
2012,07,19,02,45,12.40
2012,07,19,02,46,12.40
2012,07,19,02,47,12.40
2012,07,19,02,48,12.40
2012,07,19,02,49,12.40
2012,07,19,02,50,12.40
2012,07,19,02,51,12.40
2012,07,19,02,52,12.40
2012,07,19,02,53,12.40
2012,07,19,02,54,12.40
2012,07,19,02,55,12.40
2012,07,19,02,56,12.40
2012,07,19,02,57,12.40
2012,07,19,02,58,12.50
2012,07,19,02,59,12.50
2012,07,19,03,00,12.50
2012,07,19,03,01,12.50
2012,07,19,03,02,12.50
2012,07,19,03,03,12.60
2012,07,19,03,04,12.60
2012,07,19,03,05,12.60
2012,07,19,03,06,12.60
2012,07,19,03,07,12.60
2012,07,19,03,08,12.60
2012,07,19,03,09,12.60
2012,07,19,03,10,12.60
2012,07,19,03,11,12.60
2012,07,19,03,12,12.60
2012,07,19,03,13,12.60
2012,07,19,03,14,12.60
2012,07,19,03,15,12.60
2012,07,19,03,16,12.60
2012,07,19,03,17,12.70
2012,07,19,03,18,12.70
2012,07,19,03,19,12.70
2012,07,19,03,20,12.70
2012,07,19,03,21,12.70
2012,07,19,03,22,12.60
2012,07,19,03,23,12.60
2012,07,19,03,24,12.60
2012,07,19,03,25,12.60
2012,07,19,03,26,12.60
2012,07,19,03,27,12.60
2012,07,19,03,28,12.60
2012,07,19,03,29,12.60
2012,07,19,03,30,12.60
2012,07,19,03,31,12.60
2012,07,19,03,32,12.50
2012,07,19,03,33,12.50
2012,07,19,03,34,12.50
2012,07,19,03,35,12.50
2012,07,19,03,36,12.50
2012,07,19,03,37,12.40
2012,07,19,03,38,12.40
2012,07,19,03,39,12.40
2012,07,19,03,40,12.40
2012,07,19,03,41,12.40
2012,07,19,03,42,12.40
2012,07,19,03,43,12.30
2012,07,19,03,44,12.30
2012,07,19,03,45,12.30
2012,07,19,03,46,12.30
2012,07,19,03,47,12.30
2012,07,19,03,48,12.30
2012,07,19,03,49,12.30
2012,07,19,03,50,12.30
2012,07,19,03,51,12.20
2012,07,19,03,52,12.20
2012,07,19,03,53,12.20
2012,07,19,03,54,12.20
2012,07,19,03,55,12.20
2012,07,19,03,56,12.20
2012,07,19,03,57,12.20
2012,07,19,03,58,12.20
2012,07,19,03,59,12.10
2012,07,19,04,00,12.10
2012,07,19,04,01,12.10
2012,07,19,04,02,12.10
2012,07,19,04,03,12.10
2012,07,19,04,04,12.10
2012,07,19,04,05,12.10
2012,07,19,04,06,12.00
2012,07,19,04,07,12.00
2012,07,19,04,08,12.00
2012,07,19,04,09,12.00
2012,07,19,04,10,12.00
2012,07,19,04,11,12.00
2012,07,19,04,12,12.00
2012,07,19,04,13,12.00
2012,07,19,04,14,12.00
2012,07,19,04,15,12.00
2012,07,19,04,16,11.90
2012,07,19,04,17,11.90
2012,07,19,04,18,11.90
2012,07,19,04,19,11.90
2012,07,19,04,20,11.90
2012,07,19,04,21,11.90
2012,07,19,04,22,11.80
2012,07,19,04,23,11.80
2012,07,19,04,24,11.80
2012,07,19,04,25,11.80
2012,07,19,04,26,11.80
2012,07,19,04,27,11.80
2012,07,19,04,28,11.80
2012,07,19,04,29,11.70
2012,07,19,04,30,11.70
2012,07,19,04,31,11.70
2012,07,19,04,32,11.70
2012,07,19,04,33,11.70
2012,07,19,04,34,11.70
2012,07,19,04,35,11.70
2012,07,19,04,36,11.70
2012,07,19,04,37,11.60
2012,07,19,04,38,11.60
2012,07,19,04,39,11.60
2012,07,19,04,40,11.60
2012,07,19,04,41,11.60
2012,07,19,04,42,11.60
2012,07,19,04,43,11.60
2012,07,19,04,44,11.60
2012,07,19,04,45,11.60
2012,07,19,04,46,11.60
2012,07,19,04,47,11.60
2012,07,19,04,48,11.60
2012,07,19,04,49,11.60
2012,07,19,04,50,11.50
2012,07,19,04,51,11.50
2012,07,19,04,52,11.50
2012,07,19,04,53,11.50
2012,07,19,04,54,11.50
2012,07,19,04,55,11.50
2012,07,19,04,56,11.50
2012,07,19,04,57,11.40
2012,07,19,04,58,11.40
2012,07,19,04,59,11.40
2012,07,19,05,00,11.40
2012,07,19,05,01,11.40
2012,07,19,05,02,11.40
2012,07,19,05,03,11.40
2012,07,19,05,04,11.30
2012,07,19,05,05,11.30
2012,07,19,05,06,11.30
2012,07,19,05,07,11.30
2012,07,19,05,08,11.30
2012,07,19,05,09,11.30
2012,07,19,05,10,11.20
2012,07,19,05,11,11.20
2012,07,19,05,12,11.20
2012,07,19,05,13,11.20
2012,07,19,05,14,11.20
2012,07,19,05,15,11.20
2012,07,19,05,16,11.20
2012,07,19,05,17,11.10
2012,07,19,05,18,11.10
2012,07,19,05,19,11.10
2012,07,19,05,20,11.10
2012,07,19,05,21,11.10
2012,07,19,05,22,11.10
2012,07,19,05,23,11.10
2012,07,19,05,24,11.10
2012,07,19,05,25,11.10
2012,07,19,05,26,11.10
2012,07,19,05,27,11.10
2012,07,19,05,28,11.10
2012,07,19,05,29,11.00
2012,07,19,05,30,11.00
2012,07,19,05,31,11.00
2012,07,19,05,32,11.00
2012,07,19,05,33,11.00
2012,07,19,05,34,11.00
2012,07,19,05,35,11.00
2012,07,19,05,36,11.00
2012,07,19,05,37,11.00
2012,07,19,05,38,10.90
2012,07,19,05,39,10.90
2012,07,19,05,40,10.90
2012,07,19,05,41,10.90
2012,07,19,05,42,10.80
2012,07,19,05,43,10.80
2012,07,19,05,44,10.80
2012,07,19,05,45,10.80
2012,07,19,05,46,10.80
2012,07,19,05,47,10.80
2012,07,19,05,48,10.80
2012,07,19,05,49,10.80
2012,07,19,05,50,10.80
2012,07,19,05,51,10.80
2012,07,19,05,52,10.80
2012,07,19,05,53,10.80
2012,07,19,05,54,10.80
2012,07,19,05,55,10.80
2012,07,19,05,56,10.80
2012,07,19,05,57,10.80
2012,07,19,05,58,10.80
2012,07,19,05,59,10.80
2012,07,19,06,00,10.80
2012,07,19,06,01,10.80
2012,07,19,06,02,10.80
2012,07,19,06,03,10.80
2012,07,19,06,04,10.80
2012,07,19,06,05,10.80
2012,07,19,06,06,10.80
2012,07,19,06,07,10.80
2012,07,19,06,08,10.80
2012,07,19,06,09,10.80
2012,07,19,06,10,10.80
2012,07,19,06,11,10.80
2012,07,19,06,12,10.80
2012,07,19,06,13,10.80
2012,07,19,06,14,10.80
2012,07,19,06,15,10.80
2012,07,19,06,16,10.80
2012,07,19,06,17,10.80
2012,07,19,06,18,10.80
2012,07,19,06,19,10.80
2012,07,19,06,20,10.80
2012,07,19,06,21,10.90
2012,07,19,06,22,10.90
2012,07,19,06,23,10.90
2012,07,19,06,24,10.90
2012,07,19,06,25,10.90
2012,07,19,06,26,10.90
2012,07,19,06,27,10.90
2012,07,19,06,28,11.00
2012,07,19,06,29,11.00
2012,07,19,06,30,11.00
2012,07,19,06,31,11.00
2012,07,19,06,32,11.00
2012,07,19,06,33,11.10
2012,07,19,06,34,11.10
2012,07,19,06,35,11.10
2012,07,19,06,36,11.10
2012,07,19,06,37,11.10
2012,07,19,06,38,11.10
2012,07,19,06,39,11.10
2012,07,19,06,40,11.10
2012,07,19,06,41,11.20
2012,07,19,06,42,11.20
2012,07,19,06,43,11.20
2012,07,19,06,44,11.30
2012,07,19,06,45,11.30
2012,07,19,06,46,11.30
2012,07,19,06,47,11.40
2012,07,19,06,48,11.40
2012,07,19,06,49,11.40
2012,07,19,06,50,11.50
2012,07,19,06,51,11.50
2012,07,19,06,52,11.50
2012,07,19,06,53,11.60
2012,07,19,06,54,11.60
2012,07,19,06,55,11.60
2012,07,19,06,56,11.60
2012,07,19,06,57,11.70
2012,07,19,06,58,11.70
2012,07,19,06,59,11.70
2012,07,19,07,00,11.70
2012,07,19,07,01,11.70
2012,07,19,07,02,11.70
2012,07,19,07,03,11.70
2012,07,19,07,04,11.70
2012,07,19,07,05,11.70
2012,07,19,07,06,11.60
2012,07,19,07,07,11.60
2012,07,19,07,08,11.60
2012,07,19,07,09,11.60
2012,07,19,07,10,11.60
2012,07,19,07,11,11.70
2012,07,19,07,12,11.70
2012,07,19,07,13,11.70
2012,07,19,07,14,11.70
2012,07,19,07,15,11.70
2012,07,19,07,16,11.80
2012,07,19,07,17,11.80
2012,07,19,07,18,11.80
2012,07,19,07,19,11.80
2012,07,19,07,20,11.80
2012,07,19,07,21,11.80
2012,07,19,07,22,11.80
2012,07,19,07,23,11.80
2012,07,19,07,24,11.80
2012,07,19,07,25,11.80
2012,07,19,07,26,11.80
2012,07,19,07,27,11.80
2012,07,19,07,28,11.90
2012,07,19,07,29,11.90
2012,07,19,07,30,12.00
2012,07,19,07,31,12.00
2012,07,19,07,32,12.10
2012,07,19,07,33,12.20
2012,07,19,07,34,12.20
2012,07,19,07,35,12.30
2012,07,19,07,36,12.40
2012,07,19,07,37,12.40
2012,07,19,07,38,12.50
2012,07,19,07,39,12.60
2012,07,19,07,40,12.60
2012,07,19,07,41,12.70
2012,07,19,07,42,12.70
2012,07,19,07,43,12.70
2012,07,19,07,44,12.70
2012,07,19,07,45,12.70
2012,07,19,07,46,12.70
2012,07,19,07,47,12.60
2012,07,19,07,48,12.60
2012,07,19,07,49,12.50
2012,07,19,07,50,12.50
2012,07,19,07,51,12.50
2012,07,19,07,52,12.50
2012,07,19,07,53,12.60
2012,07,19,07,54,12.60
2012,07,19,07,55,12.70
2012,07,19,07,56,12.70
2012,07,19,07,57,12.80
2012,07,19,07,58,12.80
2012,07,19,07,59,12.80
2012,07,19,08,00,12.80
2012,07,19,08,01,12.80
2012,07,19,08,02,12.80
2012,07,19,08,03,12.80
2012,07,19,08,04,12.80
2012,07,19,08,05,12.90
2012,07,19,08,06,12.90
2012,07,19,08,07,12.90
2012,07,19,08,08,12.90
2012,07,19,08,09,12.90
2012,07,19,08,10,12.90
2012,07,19,08,11,12.90
2012,07,19,08,12,12.90
2012,07,19,08,13,12.90
2012,07,19,08,14,12.90
2012,07,19,08,15,12.90
2012,07,19,08,16,12.90
2012,07,19,08,17,12.90
2012,07,19,08,18,12.90
2012,07,19,08,19,12.90
2012,07,19,08,20,12.90
2012,07,19,08,21,13.00
2012,07,19,08,22,13.00
2012,07,19,08,23,13.10
2012,07,19,08,24,13.10
2012,07,19,08,25,13.10
2012,07,19,08,26,13.20
2012,07,19,08,27,13.20
2012,07,19,08,28,13.30
2012,07,19,08,29,13.30
2012,07,19,08,30,13.40
2012,07,19,08,31,13.50
2012,07,19,08,32,13.60
2012,07,19,08,33,13.60
2012,07,19,08,34,13.60
2012,07,19,08,35,13.60
2012,07,19,08,36,13.60
2012,07,19,08,37,13.50
2012,07,19,08,38,13.50
2012,07,19,08,39,13.40
2012,07,19,08,40,13.50
2012,07,19,08,41,13.50
2012,07,19,08,42,13.60
2012,07,19,08,43,13.70
2012,07,19,08,44,13.70
2012,07,19,08,45,13.80
2012,07,19,08,46,13.80
2012,07,19,08,47,13.70
2012,07,19,08,48,13.70
2012,07,19,08,49,13.70
2012,07,19,08,50,13.70
2012,07,19,08,51,13.70
2012,07,19,08,52,13.70
2012,07,19,08,53,13.60
2012,07,19,08,54,13.60
2012,07,19,08,55,13.60
2012,07,19,08,56,13.50
2012,07,19,08,57,13.50
2012,07,19,08,58,13.60
2012,07,19,08,59,13.60
2012,07,19,09,00,13.60
2012,07,19,09,01,13.60
2012,07,19,09,02,13.50
2012,07,19,09,03,13.40
2012,07,19,09,04,13.30
2012,07,19,09,05,13.30
2012,07,19,09,06,13.20
2012,07,19,09,07,13.10
2012,07,19,09,08,13.10
2012,07,19,09,09,13.00
2012,07,19,09,10,13.00
2012,07,19,09,11,13.00
2012,07,19,09,12,13.00
2012,07,19,09,13,13.00
2012,07,19,09,14,12.90
2012,07,19,09,15,12.90
2012,07,19,09,16,12.90
2012,07,19,09,17,12.80
2012,07,19,09,18,12.90
2012,07,19,09,19,13.00
2012,07,19,09,20,13.10
2012,07,19,09,21,13.10
2012,07,19,09,22,13.10
2012,07,19,09,23,13.10
2012,07,19,09,24,13.00
2012,07,19,09,25,13.00
2012,07,19,09,26,12.90
2012,07,19,09,27,12.90
2012,07,19,09,28,13.00
2012,07,19,09,29,13.00
2012,07,19,09,30,13.10
2012,07,19,09,31,13.10
2012,07,19,09,32,13.10
2012,07,19,09,33,13.00
2012,07,19,09,34,13.00
2012,07,19,09,35,13.00
2012,07,19,09,36,13.00
2012,07,19,09,37,13.00
2012,07,19,09,38,13.00
2012,07,19,09,39,13.10
2012,07,19,09,40,13.20
2012,07,19,09,41,13.30
2012,07,19,09,42,13.40
2012,07,19,09,43,13.60
2012,07,19,09,44,13.60
2012,07,19,09,45,13.70
2012,07,19,09,46,13.70
2012,07,19,09,47,13.70
2012,07,19,09,48,13.80
2012,07,19,09,49,13.80
2012,07,19,09,50,13.80
2012,07,19,09,51,13.80
2012,07,19,09,52,13.80
2012,07,19,09,53,13.90
2012,07,19,09,54,14.00
2012,07,19,09,55,14.10
2012,07,19,09,56,14.20
2012,07,19,09,57,14.30
2012,07,19,09,58,14.30
2012,07,19,09,59,14.30
2012,07,19,10,00,14.20
2012,07,19,10,01,14.20
2012,07,19,10,02,14.10
2012,07,19,10,03,14.00
2012,07,19,10,04,13.90
2012,07,19,10,05,13.90
2012,07,19,10,06,13.90
2012,07,19,10,07,13.80
2012,07,19,10,08,13.60
2012,07,19,10,09,13.60
2012,07,19,10,10,13.60
2012,07,19,10,11,13.60
2012,07,19,10,12,13.60
2012,07,19,10,13,13.70
2012,07,19,10,14,13.70
2012,07,19,10,15,13.70
2012,07,19,10,16,13.70
2012,07,19,10,17,13.70
2012,07,19,10,18,13.70
2012,07,19,10,19,13.80
2012,07,19,10,20,13.80
2012,07,19,10,21,13.80
2012,07,19,10,22,13.80
2012,07,19,10,23,13.80
2012,07,19,10,24,13.80
2012,07,19,10,25,13.80
2012,07,19,10,26,13.80
2012,07,19,10,27,13.90
2012,07,19,10,28,14.00
2012,07,19,10,29,14.10
2012,07,19,10,30,14.10
2012,07,19,10,31,14.20
2012,07,19,10,32,14.30
2012,07,19,10,33,14.40
2012,07,19,10,34,14.50
2012,07,19,10,35,14.60
2012,07,19,10,36,14.70
2012,07,19,10,37,14.70
2012,07,19,10,38,14.80
2012,07,19,10,39,15.00
2012,07,19,10,40,15.00
2012,07,19,10,41,15.00
2012,07,19,10,42,15.00
2012,07,19,10,43,15.00
2012,07,19,10,44,15.00
2012,07,19,10,45,15.00
2012,07,19,10,46,15.00
2012,07,19,10,47,15.00
2012,07,19,10,48,15.00
2012,07,19,10,49,15.00
2012,07,19,10,50,15.10
2012,07,19,10,51,15.10
2012,07,19,10,52,15.20
2012,07,19,10,53,15.20
2012,07,19,10,54,15.30
2012,07,19,10,55,15.30
2012,07,19,10,56,15.30
2012,07,19,10,57,15.40
2012,07,19,10,58,15.50
2012,07,19,10,59,15.60
2012,07,19,11,00,15.70
2012,07,19,11,01,15.80
2012,07,19,11,02,15.80
2012,07,19,11,03,15.80
2012,07,19,11,04,15.80
2012,07,19,11,05,15.80
2012,07,19,11,06,15.90
2012,07,19,11,07,15.90
2012,07,19,11,08,16.00
2012,07,19,11,09,16.10
2012,07,19,11,10,16.00
2012,07,19,11,11,16.00
2012,07,19,11,12,15.90
2012,07,19,11,13,16.00
2012,07,19,11,14,16.10
2012,07,19,11,15,16.20
2012,07,19,11,16,16.20
2012,07,19,11,17,16.20
2012,07,19,11,18,16.20
2012,07,19,11,19,16.20
2012,07,19,11,20,16.20
2012,07,19,11,21,16.30
2012,07,19,11,22,16.30
2012,07,19,11,23,16.40
2012,07,19,11,24,16.40
2012,07,19,11,25,16.50
2012,07,19,11,26,16.60
2012,07,19,11,27,16.70
2012,07,19,11,28,16.80
2012,07,19,11,29,16.80
2012,07,19,11,30,17.00
2012,07,19,11,31,17.10
2012,07,19,11,32,17.20
2012,07,19,11,33,17.30
2012,07,19,11,34,17.30
2012,07,19,11,35,17.30
2012,07,19,11,36,17.20
2012,07,19,11,37,17.00
2012,07,19,11,38,17.00
2012,07,19,11,39,16.90
2012,07,19,11,40,16.80
2012,07,19,11,41,16.80
2012,07,19,11,42,16.80
2012,07,19,11,43,16.80
2012,07,19,11,44,16.80
2012,07,19,11,45,16.80
2012,07,19,11,46,16.90
2012,07,19,11,47,16.90
2012,07,19,11,48,17.00
2012,07,19,11,49,17.10
2012,07,19,11,50,17.20
2012,07,19,11,51,17.20
2012,07,19,11,52,17.30
2012,07,19,11,53,17.40
2012,07,19,11,54,17.50
2012,07,19,11,55,17.60
2012,07,19,11,56,17.60
2012,07,19,11,57,17.70
2012,07,19,11,58,17.80
2012,07,19,11,59,17.90
2012,07,19,12,00,18.00
2012,07,19,12,01,18.10
2012,07,19,12,02,18.10
2012,07,19,12,03,18.20
2012,07,19,12,04,18.20
2012,07,19,12,05,18.20
2012,07,19,12,06,18.20
2012,07,19,12,07,18.30
2012,07,19,12,08,18.30
2012,07,19,12,09,18.20
2012,07,19,12,10,18.20
2012,07,19,12,11,18.20
2012,07,19,12,12,18.20
2012,07,19,12,13,18.20
2012,07,19,12,14,18.10
2012,07,19,12,15,18.10
2012,07,19,12,16,18.10
2012,07,19,12,17,18.10
2012,07,19,12,18,18.20
2012,07,19,12,19,18.30
2012,07,19,12,20,18.40
2012,07,19,12,21,18.50
2012,07,19,12,22,18.60
2012,07,19,12,23,18.60
2012,07,19,12,24,18.60
2012,07,19,12,25,18.60
2012,07,19,12,26,18.60
2012,07,19,12,27,18.70
2012,07,19,12,28,18.80
2012,07,19,12,29,18.90
2012,07,19,12,30,19.00
2012,07,19,12,31,19.10
2012,07,19,12,32,19.20
2012,07,19,12,33,19.10
2012,07,19,12,34,19.00
2012,07,19,12,35,18.90
2012,07,19,12,36,18.80
2012,07,19,12,37,18.80
2012,07,19,12,38,18.80
2012,07,19,12,39,18.80
2012,07,19,12,40,18.70
2012,07,19,12,41,18.70
2012,07,19,12,42,18.70
2012,07,19,12,43,18.80
2012,07,19,12,44,18.80
2012,07,19,12,45,18.80
2012,07,19,12,46,18.90
2012,07,19,12,47,18.90
2012,07,19,12,48,18.80
2012,07,19,12,49,18.80
2012,07,19,12,50,18.70
2012,07,19,12,51,18.70
2012,07,19,12,52,18.70
2012,07,19,12,53,18.70
2012,07,19,12,54,18.70
2012,07,19,12,55,18.70
2012,07,19,12,56,18.60
2012,07,19,12,57,18.60
2012,07,19,12,58,18.60
2012,07,19,12,59,18.60
2012,07,19,13,00,18.50
2012,07,19,13,01,18.60
2012,07,19,13,02,18.60
2012,07,19,13,03,18.80
2012,07,19,13,04,18.90
2012,07,19,13,05,18.90
2012,07,19,13,06,18.90
2012,07,19,13,07,18.90
2012,07,19,13,08,18.90
2012,07,19,13,09,18.80
2012,07,19,13,10,18.80
2012,07,19,13,11,18.70
2012,07,19,13,12,18.70
2012,07,19,13,13,18.70
2012,07,19,13,14,18.80
2012,07,19,13,15,18.90
2012,07,19,13,16,19.00
2012,07,19,13,17,19.10
2012,07,19,13,18,19.10
2012,07,19,13,19,19.20
2012,07,19,13,20,19.20
2012,07,19,13,21,19.20
2012,07,19,13,22,19.20
2012,07,19,13,23,19.20
2012,07,19,13,24,19.20
2012,07,19,13,25,19.20
2012,07,19,13,26,19.20
2012,07,19,13,27,19.10
2012,07,19,13,28,19.10
2012,07,19,13,29,19.10
2012,07,19,13,30,19.20
2012,07,19,13,31,19.20
2012,07,19,13,32,19.20
2012,07,19,13,33,19.20
2012,07,19,13,34,19.30
2012,07,19,13,35,19.40
2012,07,19,13,36,19.40
2012,07,19,13,37,19.50
2012,07,19,13,38,19.60
2012,07,19,13,39,19.70
2012,07,19,13,40,19.60
2012,07,19,13,41,19.60
2012,07,19,13,42,19.60
2012,07,19,13,43,19.70
2012,07,19,13,44,19.60
2012,07,19,13,45,19.70
2012,07,19,13,46,19.70
2012,07,19,13,47,19.70
2012,07,19,13,48,19.80
2012,07,19,13,49,19.90
2012,07,19,13,50,20.10
2012,07,19,13,51,20.20
2012,07,19,13,52,20.30
2012,07,19,13,53,20.40
2012,07,19,13,54,20.40
2012,07,19,13,55,20.30
2012,07,19,13,56,20.30
2012,07,19,13,57,20.30
2012,07,19,13,58,20.30
2012,07,19,13,59,20.30
2012,07,19,14,00,20.40
2012,07,19,14,01,20.50
2012,07,19,14,02,20.50
2012,07,19,14,03,20.60
2012,07,19,14,04,20.60
2012,07,19,14,05,20.60
2012,07,19,14,06,20.60
2012,07,19,14,07,20.50
2012,07,19,14,08,20.40
2012,07,19,14,09,20.20
2012,07,19,14,10,20.00
2012,07,19,14,11,19.90
2012,07,19,14,12,19.90
2012,07,19,14,13,19.90
2012,07,19,14,14,19.90
2012,07,19,14,15,19.90
2012,07,19,14,16,20.00
2012,07,19,14,17,20.00
2012,07,19,14,18,20.00
2012,07,19,14,19,20.10
2012,07,19,14,20,20.10
2012,07,19,14,21,20.10
2012,07,19,14,22,20.00
2012,07,19,14,23,20.00
2012,07,19,14,24,20.00
2012,07,19,14,25,20.00
2012,07,19,14,26,20.00
2012,07,19,14,27,20.00
2012,07,19,14,28,20.10
2012,07,19,14,29,20.10
2012,07,19,14,30,20.10
2012,07,19,14,31,20.00
2012,07,19,14,32,20.00
2012,07,19,14,33,19.90
2012,07,19,14,34,19.80
2012,07,19,14,35,19.80
2012,07,19,14,36,19.80
2012,07,19,14,37,19.70
2012,07,19,14,38,19.70
2012,07,19,14,39,19.70
2012,07,19,14,40,19.70
2012,07,19,14,41,19.70
2012,07,19,14,42,19.70
2012,07,19,14,43,19.70
2012,07,19,14,44,19.70
2012,07,19,14,45,19.80
2012,07,19,14,46,19.80
2012,07,19,14,47,19.90
2012,07,19,14,48,20.00
2012,07,19,14,49,20.10
2012,07,19,14,50,20.10
2012,07,19,14,51,20.20
2012,07,19,14,52,20.20
2012,07,19,14,53,20.20
2012,07,19,14,54,20.20
2012,07,19,14,55,20.20
2012,07,19,14,56,20.20
2012,07,19,14,57,20.20
2012,07,19,14,58,20.20
2012,07,19,14,59,20.20
2012,07,19,15,00,20.20
2012,07,19,15,01,20.20
2012,07,19,15,02,20.40
2012,07,19,15,03,20.60
2012,07,19,15,04,20.70
2012,07,19,15,05,20.80
2012,07,19,15,06,20.80
2012,07,19,15,07,20.80
2012,07,19,15,08,20.90
2012,07,19,15,09,20.80
2012,07,19,15,10,20.70
2012,07,19,15,11,20.60
2012,07,19,15,12,20.60
2012,07,19,15,13,20.70
2012,07,19,15,14,20.80
2012,07,19,15,15,20.80
2012,07,19,15,16,20.90
2012,07,19,15,17,21.00
2012,07,19,15,18,21.20
2012,07,19,15,19,21.30
2012,07,19,15,20,21.30
2012,07,19,15,21,21.50
2012,07,19,15,22,21.60
2012,07,19,15,23,21.80
2012,07,19,15,24,21.90
2012,07,19,15,25,22.10
2012,07,19,15,26,22.20
2012,07,19,15,27,22.30
2012,07,19,15,28,22.30
2012,07,19,15,29,22.30
2012,07,19,15,30,22.10
2012,07,19,15,31,22.10
2012,07,19,15,32,22.10
2012,07,19,15,33,22.00
2012,07,19,15,34,21.90
2012,07,19,15,35,21.90
2012,07,19,15,36,21.80
2012,07,19,15,37,21.80
2012,07,19,15,38,21.60
2012,07,19,15,39,21.50
2012,07,19,15,40,21.40
2012,07,19,15,41,21.30
2012,07,19,15,42,21.20
2012,07,19,15,43,21.10
2012,07,19,15,44,21.00
2012,07,19,15,45,20.90
2012,07,19,15,46,20.90
2012,07,19,15,47,20.90
2012,07,19,15,48,20.80
2012,07,19,15,49,20.80
2012,07,19,15,50,20.70
2012,07,19,15,51,20.80
2012,07,19,15,52,20.80
2012,07,19,15,53,20.90
2012,07,19,15,54,21.10
2012,07,19,15,55,21.10
2012,07,19,15,56,21.20
2012,07,19,15,57,21.20
2012,07,19,15,58,21.20
2012,07,19,15,59,21.10
2012,07,19,16,00,21.20
2012,07,19,16,01,21.20
2012,07,19,16,02,21.30
2012,07,19,16,03,21.50
2012,07,19,16,04,21.60
2012,07,19,16,05,21.70
2012,07,19,16,06,21.80
2012,07,19,16,07,21.90
2012,07,19,16,08,22.10
2012,07,19,16,09,22.30
2012,07,19,16,10,22.50
2012,07,19,16,11,22.60
2012,07,19,16,12,22.70
2012,07,19,16,13,22.60
2012,07,19,16,14,22.70
2012,07,19,16,15,22.60
2012,07,19,16,16,22.60
2012,07,19,16,17,22.60
2012,07,19,16,18,22.60
2012,07,19,16,19,22.80
2012,07,19,16,20,22.90
2012,07,19,16,21,23.00
2012,07,19,16,22,23.10
2012,07,19,16,23,23.10
2012,07,19,16,24,22.90
2012,07,19,16,25,22.90
2012,07,19,16,26,22.80
2012,07,19,16,27,22.60
2012,07,19,16,28,22.60
2012,07,19,16,29,22.70
2012,07,19,16,30,22.70
2012,07,19,16,31,22.80
2012,07,19,16,32,22.90
2012,07,19,16,33,22.90
2012,07,19,16,34,22.90
2012,07,19,16,35,22.90
2012,07,19,16,36,22.70
2012,07,19,16,37,22.40
2012,07,19,16,38,22.20
2012,07,19,16,39,21.90
2012,07,19,16,40,21.80
2012,07,19,16,41,21.70
2012,07,19,16,42,21.60
2012,07,19,16,43,21.30
2012,07,19,16,44,21.20
2012,07,19,16,45,21.10
2012,07,19,16,46,21.00
2012,07,19,16,47,20.90
2012,07,19,16,48,20.90
2012,07,19,16,49,20.80
2012,07,19,16,50,20.70
2012,07,19,16,51,20.80
2012,07,19,16,52,20.80
2012,07,19,16,53,20.90
2012,07,19,16,54,21.10
2012,07,19,16,55,21.20
2012,07,19,16,56,21.30
2012,07,19,16,57,21.40
2012,07,19,16,58,21.40
2012,07,19,16,59,21.40
2012,07,19,17,00,21.40
2012,07,19,17,01,21.50
2012,07,19,17,02,21.50
2012,07,19,17,03,21.40
2012,07,19,17,04,21.40
2012,07,19,17,05,21.40
2012,07,19,17,06,21.40
2012,07,19,17,07,21.40
2012,07,19,17,08,21.30
2012,07,19,17,09,21.30
2012,07,19,17,10,21.30
2012,07,19,17,11,21.40
2012,07,19,17,12,21.50
2012,07,19,17,13,21.60
2012,07,19,17,14,21.60
2012,07,19,17,15,21.50
2012,07,19,17,16,21.40
2012,07,19,17,17,21.30
2012,07,19,17,18,21.30
2012,07,19,17,19,21.20